Regional Weather Roundup
Issued by NWS

Home | Current Version | Previous Version | Text Only | Print | Product List | Glossary Off
Versions: 1 2 3 4 5 6 7 8 9 10 11 12 13 14 15 16 17 18 19 20 21 22 23 24 25 26 27 28 29 30 31 32 33 34 35 36 37 38 39 40 41 42 43 44 45 46 47 48 49 50

000
ASUS43 KDTX 252301
RWRMI
MICHIGAN HOURLY REGIONAL WEATHER ROUNDUP
NATIONAL WEATHER SERVICE DETROIT/PONTIAC MI
600 PM EST THU DEC 25 2014

NOTE: "FAIR" INDICATES FEW OR NO CLOUDS BELOW 12,000 FEET WITH NO
SIGNIFICANT WEATHER AND/OR OBSTRUCTION TO VISIBILITY.

MIZ047>049-052>055-059>063-066>070-074>076-081>083-260000-
SOUTHEAST LOWER MICHIGAN

CITY           SKY/WX    TMP DP  RH WIND       PRES   REMARKS
ADRIAN         CLOUDY    36  29  75 W7        30.08R WCI  30
ALMA           PTCLDY    35  30  84 SW8       29.99S WCI  28
ANN ARBOR      CLOUDY    37  29  72 SW10      30.06R WCI  30
BAD AXE        CLOUDY    36  31  83 W14G25    30.00R WCI  27
CARO           CLOUDY    36  31  82 SW10      30.00R WCI  28
DETROIT CITY   CLOUDY    39  28  64 SW13      30.08R WCI  31
DETROIT        CLOUDY    37  29  72 SW12      30.08R WCI  29
FLINT          CLOUDY    37  29  72 SW8       30.04R WCI  31
GROSSE ILE     CLOUDY    37  30  75 SW10G16   30.08R WCI  30
HILLSDALE      MOCLDY    35  31  84 SW7       30.04F WCI  29
HOWELL         CLOUDY    35  30  83 SW9       30.03S WCI  27

CITY           SKY/WX    TMP DP  RH WIND       PRES   REMARKS
JACKSON        PTCLDY    35  28  75 SW8       30.03F WCI  29
LAMBERTVILLE   CLOUDY    37  32  81 SW7       30.10R WCI  32
LANSING        PTCLDY    34  28  79 SW8       30.03S WCI  27
LAPEER         CLOUDY    35  29  76 W9        30.03R WCI  28
MASON          MOCLDY    34  28  80 SW5       30.03S WCI  30
MONROE         CLOUDY    37  30  75 SW14      30.08R WCI  29
MT. CLEMENS    CLOUDY    38  32  79 SW12      30.05R WCI  30
PONTIAC        CLOUDY    35  28  75 SW9       30.04R WCI  28
PORT HOPE        N/A     37  30  75 SW9G20    29.95R WCI  30
PORT HURON     CLOUDY    37  30  75 SW5       30.05R WCI  34
TRI CITIES     CLOUDY    37  30  75 SW13      30.00R WCI  29
TROY           CLOUDY    39  29  69 SW8       30.08R WCI  33
SAGINAW HB     MOCLDY    36  32  87 SW12      30.00R WCI  27
$$
MIZ043>046-050>051-056>058-064>065-071>073-077>080-260000-
SOUTHWEST LOWER MICHIGAN

CITY           SKY/WX    TMP DP  RH WIND       PRES   REMARKS
BATTLE CREEK   CLEAR     34  28  79 S8        30.03R WCI  27
BENTON HARBOR  CLEAR     36  30  79 S7        30.02R WCI  30
BIG RAPIDS     CLOUDY    35  32  90 S7        29.95R WCI  29
COLDWATER      CLOUDY    35  30  83 MISG      30.05R
FREMONT        MOCLDY    34  31  88 SW10      29.97R WCI  26
HOLLAND        CLEAR     38  30  73 SW14      30.01R WCI  30
GRAND RAPIDS   PTCLDY    34  29  82 SW8       30.01R WCI  27
IONIA          FAIR      35  30  82 SW8       30.00R WCI  28
KALAMAZOO      CLEAR     35  28  75 S8        30.04R WCI  29
LUDINGTON      CLOUDY    37  32  81 SW15G21   29.94S WCI  28
MARSHALL       CLEAR     33  29  85 SW6       30.04R WCI  27
MOUNT PLEASANT CLOUDY    35  30  81 SW9       29.97R WCI  28
MUSKEGON       MOCLDY    38  31  76 S12       29.98R WCI  30
SOUTH HAVEN    CLEAR     37  30  75 S6        30.02S WCI  33
$$
MIZ016>042-260000-
NORTHERN LOWER MICHIGAN

CITY           SKY/WX    TMP DP  RH WIND       PRES   REMARKS
ALPENA         CLOUDY    36  30  79 SW7       29.90R WCI  30
BEAVER ISLAND  CLOUDY    36  32  85 SW14G20   29.87R WCI  27
BELLAIRE       CLOUDY    37  30  77 SW8G18    29.91R WCI  30
CADILLAC       CLOUDY    32  29  89 SW13      29.91R WCI  22
CHARLEVOIX     CLOUDY    36  31  85 SW16      29.91R WCI  26
FRANKFORT      CLOUDY    37  32  83 SW10G18   29.92R WCI  30
GAYLORD        CLOUDY    33  30  88 SW9       29.87R WCI  25
GRAYLING       CLOUDY    33  29  85 SW7       29.90R WCI  27
HARBOR SPRINGS CLOUDY    36  31  82 SW9       29.88R WCI  29
HOUGHTON LAKE  CLOUDY    33  28  81 SW10      29.93R WCI  25
MANISTEE       MOCLDY    36  28  75 SW8       29.93R WCI  29
OSCODA         CLOUDY    36  31  81 SW10      29.93R WCI  29
PELLSTON       CLOUDY    37  31  78 SW9       29.88R WCI  30
ROGERS CITY    MOCLDY    35  32  89 SW9       29.89R WCI  28
TRAVERSE CITY  MOCLDY    37  29  72 SW9G20    29.91R WCI  30
$$
MIZ007>008-015-260000-
EASTERN UPPER MICHIGAN

CITY           SKY/WX    TMP DP  RH WIND       PRES   REMARKS
KINROSS        CLOUDY    36  32  87 W7G16     29.84R WCI  30
MACKINAC ISLAN CLOUDY    36  33  90 W12G22    29.86R WCI  28
NEWBERRY       CLOUDY    32  31  95 SW9       29.83R WCI  25
S. S. MARIE    CLOUDY    35  30  82 SW10      29.86R WCI  27
MUNISING         N/A     38  28  67 SW3       29.82R
$$
MIZ004>006-011>014-085-260000-
CENTRAL UPPER MICHIGAN

CITY           SKY/WX    TMP DP  RH WIND       PRES   REMARKS
MANISTIQUE     CLOUDY    33  31  92 MISG      29.85R
ESCANABA       CLOUDY    36  28  75 S6        29.85R WCI  31
MENOMINEE      CLOUDY    34  28  80 SW7       29.87R WCI  28
SAWYER-GWINN   CLOUDY    34  30  86 SW8       29.80R WCI  27
$$
MIZ001>003-009>011-084-260000-
WESTERN UPPER MICHIGAN

CITY           SKY/WX    TMP DP  RH WIND       PRES   REMARKS
IRON MOUNTAIN  CLOUDY    33  28  81 SW5       29.82R WCI  29
HOUGHTON       CLOUDY    32  28  85 W12       29.78R WCI  23
COPPER HARBOR    N/A     35  30  82 W6        29.78R WCI  30
IRONWOOD       CLOUDY    30  28  93 W6        29.78R WCI  24
$$

ABBREVIATIONS USED IN REMARKS
   TC - TEMPERATURE IN CELSIUS
  WCI - WIND CHILL INDEX
   HX - HEAT INDEX
  VSB - VISIBILITY




USA.gov is the U.S. government's official web portal to all federal, state and local government web resources and services.